Nanjing Lukou Airport
ZSNJ : now visible

Airfield :











YOU CAN JOIN US ON...

 
LOGIN :

Register | Disclaimer

   EN    FR    IT 

 









Legend :    VFR   Marginal VFR   IFR   Intensive IFR   Very Intensive IFR
Visi :
Ceiling :
>= 8 km
>= 3000ft
5 to 8 km
1000 to 3000 ft
1500m to 5 km
500 to 1000 ft
800 to 1500m
200 to 500 ft
< 800m
< 200 ft
Symbols :   Thunderstorms  Fog  Heavy snow  Heavy precipitations  Wind > 20 kt







- Airport Elevation : 49 ft
- IATA code : NKG


ZSNJ - Nanjing Lukou

CURRENT METAR :
  • 260700Z 24006MPS 9999 SCT011 SCT026 24/23 Q1002 NOSIG

EXPIRED METARs :
  • 260600Z 23007MPS 9000 -RA BKN011 OVC026 23/22 Q1003 BECMG TL0740 BKN015 OVC030
  • 260500Z 22008MPS 9000 -RA BKN012 OVC030 24/22 Q1003 BECMG TL0630 BKN015 OVC033

TAF TAF ZSNJ
Valid from the 26 at 06:00 until the 27 at 06:00 UTC


260308Z 2606/2706 22004MPS 3000 -RA BR BKN010 OVC030 TX26/2705Z TN21/2622Z
TEMPO 2606/2610 -TSRA BKN006 FEW030CB OVC033
BECMG 2614/2615 BKN020
BECMG 2701/2702 33006MPS
ZSHA FIR / Asia



MET'MAP, your aeronautical weather chart ! - Copyright ORBIFLY December 2007 - Disclaimer

ORBIFLY MET'MAP TEAM :

Programming & Development : Alexandra Zaïnal
Concept & Development : Baudouin d'Aumeries
Co-Development & Prog : Marc-Olivier Méhu
Technical & hardware support : Manuel Goepfert

Contact : metmap@orbifly.com




SOURCES & CREDITS :

   NOAA       Earth
Advisory